Vojka Airport

RS-0005 · Vojvodina, Serbia

METAR pasados RS-0005 · Vojka Airport

A continuación puedes ver los METAR de los últimos días. Selecciona un año para ver los METAR más antiguos, desde el año 2007 en adelante.

23 de abril de 2024

Hora Código Tiempo Temp. Visibilidad Cielo nuboso Viento METAR/SPECI
09:00
V
14 °C 10 km+ - 120° 120° 16 kt METAR LYBT 230700Z 12016KT 070V140 CAVOK 14/08 Q1012 NOSIG
08:30
V
13 °C 10 km+ - 110° 110° 15 kt METAR LYBT 230630Z 11015KT CAVOK 13/07 Q1012 NOSIG
08:00
V
12 °C 10 km+ - 110° 110° 13 kt METAR LYBT 230600Z 11013KT 070V140 CAVOK 12/07 Q1012 NOSIG
07:30
V
11 °C 10 km+ - 100° 100° 12 kt METAR LYBT 230530Z 10012KT CAVOK 11/07 Q1012 NOSIG
07:00
V
10 °C 10 km+ - 090° 090° 8 kt METAR LYBT 230500Z 09008KT 060V130 CAVOK 10/07 Q1012 NOSIG
06:30
V
7 °C 10 km+ - 070° 070° 7 kt METAR LYBT 230430Z 07007KT 040V100 CAVOK 07/05 Q1012 NOSIG
06:00
V
6 °C 10 km+ - 060° 060° 8 kt METAR LYBT 230400Z 06008KT CAVOK 06/04 Q1012 NOSIG
05:30
V
7 °C 10 km+ - 070° 070° 8 kt METAR LYBT 230330Z 07008KT 040V100 CAVOK 07/04 Q1012 NOSIG
05:00
V
7 °C 10 km+ - 070° 070° 9 kt METAR LYBT 230300Z 07009KT CAVOK 07/04 Q1012 NOSIG
04:30
V
7 °C 10 km+ - 060° 060° 10 kt METAR LYBT 230230Z 06010KT CAVOK 07/04 Q1013 NOSIG
04:00
V
7 °C 10 km+ - 070° 070° 9 kt METAR LYBT 230200Z 07009KT 040V100 CAVOK 07/04 Q1013 NOSIG
03:30
V
8 °C 10 km+ - 070° 070° 9 kt METAR LYBT 230130Z 07009KT 040V100 CAVOK 08/04 Q1013 NOSIG
03:00
V
7 °C 10 km+ - 060° 060° 9 kt METAR LYBT 230100Z 06009KT CAVOK 07/05 Q1014 NOSIG
02:30
V
7 °C 10 km+ - 060° 060° 10 kt METAR LYBT 230030Z 06010KT CAVOK 07/05 Q1014 NOSIG
02:00
V
7 °C 10 km+ - 060° 060° 10 kt METAR LYBT 230000Z 06010KT CAVOK 07/05 Q1015 NOSIG
01:30
V
7 °C 10 km+ - 060° 060° 9 kt METAR LYBT 222330Z 06009KT CAVOK 07/05 Q1015 NOSIG
01:00
V
8 °C 10 km+ - 060° 060° 9 kt METAR LYBT 222300Z 06009KT CAVOK 08/05 Q1015 NOSIG
00:30
V
8 °C 10 km+ - 060° 060° 10 kt METAR LYBT 222230Z 06010KT 040V100 CAVOK 08/05 Q1016 NOSIG
00:00
V
8 °C 10 km+ - 070° 070° 10 kt METAR LYBT 222200Z 07010KT CAVOK 08/05 Q1016 NOSIG

22 de abril de 2024

Hora Código Tiempo Temp. Visibilidad Cielo nuboso Viento METAR/SPECI
23:30
V
8 °C 10 km+ - 060° 060° 9 kt METAR LYBT 222130Z 06009KT 040V100 CAVOK 08/05 Q1016 NOSIG
23:00
V
9 °C 10 km+ - 070° 070° 9 kt METAR LYBT 222100Z 07009KT 030V100 CAVOK 09/05 Q1016 NOSIG
22:30
V
9 °C 10 km+ - 070° 070° 9 kt METAR LYBT 222030Z 07009KT 040V100 CAVOK 09/05 Q1017 NOSIG
22:00
V
9 °C 10 km+ - 070° 070° 7 kt METAR LYBT 222000Z 07007KT CAVOK 09/04 Q1017 NOSIG
21:30
V
10 °C 10 km+ - 080° 080° 8 kt METAR LYBT 221930Z 08008KT CAVOK 10/03 Q1017 NOSIG
21:00
V
10 °C 10 km+ - 070° 070° 6 kt METAR LYBT 221900Z 07006KT CAVOK 10/02 Q1017 NOSIG
20:30
V
11 °C 10 km+ - 080° 080° 6 kt METAR LYBT 221830Z 08006KT CAVOK 11/01 Q1017 NOSIG
20:00
V
12 °C 10 km+ - 080° 080° 6 kt METAR LYBT 221800Z 08006KT CAVOK 12/01 Q1017 NOSIG
19:30
V
12 °C 10 km+ - 070° 070° 5 kt METAR LYBT 221730Z 07005KT CAVOK 12/01 Q1017 NOSIG
19:00
V
13 °C 10 km+ - 070° 070° 5 kt METAR LYBT 221700Z 07005KT 040V100 CAVOK 13/01 Q1017 NOSIG
18:30
V
14 °C 10 km+ - 070° 070° 7 kt METAR LYBT 221630Z 07007KT 030V120 CAVOK 14/01 Q1017 NOSIG
18:00
V
15 °C 10 km+ - 090° 090° 4 kt METAR LYBT 221600Z 09004KT 010V130 CAVOK 15/01 Q1017 NOSIG
17:30
V
15 °C 10 km+ - 090° 090° 3 kt METAR LYBT 221530Z 09003KT 020V150 CAVOK 15/M00 Q1017 NOSIG
17:00
V
14 °C 10 km+ - 090° 090° 3 kt METAR LYBT 221500Z 09003KT 050V140 CAVOK 14/00 Q1017 NOSIG
16:30
V
15 °C 10 km+ - 100° 100° 5 kt METAR LYBT 221430Z 10005KT 060V160 CAVOK 15/01 Q1017 NOSIG
16:00
V
16 °C 10 km+ - Var Var 3 kt METAR LYBT 221400Z VRB03KT CAVOK 16/01 Q1017 NOSIG
15:30
V
15 °C 10 km+ - Var Var 4 kt METAR LYBT 221330Z VRB04KT CAVOK 15/01 Q1018 NOSIG
15:00
V
15 °C 10 km+ - 320° 320° 3 kt METAR LYBT 221300Z 32003KT 250V040 CAVOK 15/02 Q1018 NOSIG
14:30
V
14 °C 10 km+ - 180° 180° 4 kt METAR LYBT 221230Z 18004KT 130V220 CAVOK 14/01 Q1018 NOSIG
14:00
V
15 °C 10 km+ - 220° 220° 6 kt METAR LYBT 221200Z 22006KT 150V300 CAVOK 15/02 Q1018 NOSIG
13:30
V
14 °C 10 km+ - 190° 190° 4 kt METAR LYBT 221130Z 19004KT 140V260 9999 SCT043 14/02 Q1018 NOSIG
13:00
V
13 °C 10 km+ - 250° 250° 5 kt METAR LYBT 221100Z 25005KT 170V320 9999 SCT043 13/02 Q1018 NOSIG
12:30
V
13 °C 10 km+ 4.000 ft Var Var 6 kt METAR LYBT 221030Z VRB06KT 9999 BKN040 13/03 Q1018 NOSIG
12:00
V
12 °C 10 km+ 3.600 ft 250° 250° 7 kt METAR LYBT 221000Z 25007KT 200V310 9999 BKN036 12/04 Q1018 NOSIG
11:30
V
11 °C 10 km+ 3.300 ft 280° 280° 6 kt METAR LYBT 220930Z 28006KT 220V020 9999 BKN033 11/04 Q1018 NOSIG
11:00
V
11 °C 10 km+ - 240° 240° 6 kt METAR LYBT 220900Z 24006KT 180V290 9999 SCT030 11/05 Q1018 NOSIG
10:30
V
10 °C 10 km+ - 260° 260° 6 kt METAR LYBT 220830Z 26006KT 210V320 9999 SCT030 10/04 Q1018 NOSIG
10:00
V
10 °C 10 km+ - 290° 290° 5 kt METAR LYBT 220800Z 29005KT 240V340 9999 FEW020 10/04 Q1018 NOSIG
09:30
V
9 °C 10 km+ - 270° 270° 3 kt METAR LYBT 220730Z 27003KT 220V310 9999 FEW020 09/05 Q1018 NOSIG
09:00
V
8 °C 10 km+ - 260° 260° 3 kt METAR LYBT 220700Z 26003KT 190V300 CAVOK 08/05 Q1018 NOSIG
08:30
V
7 °C 10 km+ - 280° 280° 3 kt METAR LYBT 220630Z 28003KT 240V320 CAVOK 07/04 Q1017 NOSIG
08:00
V
5 °C 10 km+ - 270° 270° 4 kt METAR LYBT 220600Z 27004KT CAVOK 05/04 Q1017 NOSIG
07:30
V
5 °C 10 km+ - 250° 250° 3 kt METAR LYBT 220530Z 25003KT CAVOK 05/03 Q1017 NOSIG
07:00
V
4 °C 10 km+ - Var Var 2 kt METAR LYBT 220500Z VRB02KT CAVOK 04/03 Q1017 NOSIG
06:30
V
3 °C 10 km+ - 260° 260° 3 kt METAR LYBT 220430Z 26003KT 160V310 CAVOK 03/02 Q1016 NOSIG
06:00
V
3 °C 10 km+ - 280° 280° 4 kt METAR LYBT 220400Z 28004KT CAVOK 03/02 Q1016 NOSIG
05:30
V
3 °C 10 km+ - 270° 270° 5 kt METAR LYBT 220330Z 27005KT CAVOK 03/02 Q1016 NOSIG
05:00
V
3 °C 10 km+ - 290° 290° 4 kt METAR LYBT 220300Z 29004KT CAVOK 03/02 Q1016 NOSIG
04:30
V
4 °C 10 km+ - 270° 270° 3 kt METAR LYBT 220230Z 27003KT 240V320 CAVOK 04/03 Q1016 NOSIG
04:00
V
4 °C 10 km+ - 270° 270° 6 kt METAR LYBT 220200Z 27006KT CAVOK 04/03 Q1016 NOSIG
03:30
V
5 °C 10 km+ - 260° 260° 7 kt METAR LYBT 220130Z 26007KT CAVOK 05/04 Q1015 NOSIG
03:00
V
5 °C 10 km+ - 250° 250° 5 kt METAR LYBT 220100Z 25005KT CAVOK 05/04 Q1015 NOSIG
02:30
V
5 °C 10 km+ - 260° 260° 4 kt METAR LYBT 220030Z 26004KT CAVOK 05/04 Q1015 NOSIG
02:00
V
6 °C 10 km+ - 260° 260° 4 kt METAR LYBT 220000Z 26004KT CAVOK 06/05 Q1015 NOSIG
01:30
V
7 °C 10 km+ - 260° 260° 5 kt METAR LYBT 212330Z 26005KT CAVOK 07/06 Q1015 NOSIG
01:00
V
7 °C 10 km+ - 240° 240° 4 kt METAR LYBT 212300Z 24004KT CAVOK 07/06 Q1015 NOSIG
00:30
V
7 °C 10 km+ - Var Var 1 kt METAR LYBT 212230Z VRB01KT CAVOK 07/06 Q1015 NOSIG
00:00
V
8 °C 10 km+ - Var Var 1 kt METAR LYBT 212200Z VRB01KT CAVOK 08/06 Q1015 NOSIG

21 de abril de 2024

Hora Código Tiempo Temp. Visibilidad Cielo nuboso Viento METAR/SPECI
23:30
V
9 °C 10 km+ 4.500 ft 280° 280° 3 kt METAR LYBT 212130Z 28003KT 9999 BKN045 09/06 Q1014 NOSIG
23:00
V
9 °C 10 km+ 4.000 ft 270° 270° 5 kt METAR LYBT 212100Z 27005KT 9999 -RA BKN040 09/06 Q1014 NOSIG
22:30
V
9 °C 10 km+ 4.000 ft 270° 270° 8 kt METAR LYBT 212030Z 27008KT 250V310 9999 -RA BKN040 09/06 Q1014 NOSIG
22:00
V
9 °C 10 km+ 4.500 ft 270° 270° 6 kt METAR LYBT 212000Z 27006KT 9999 -RA BKN045 09/06 Q1014 NOSIG
21:30
V
9 °C 10 km+ 4.500 ft 270° 270° 7 kt METAR LYBT 211930Z 27007KT 9999 -RA BKN045 09/06 Q1014 NOSIG
21:00
V
9 °C 10 km+ 4.500 ft 270° 270° 6 kt METAR LYBT 211900Z 27006KT 9999 -RA BKN045 09/06 Q1014 NOSIG
20:30
V
10 °C 10 km+ 4.500 ft 260° 260° 7 kt METAR LYBT 211830Z 26007KT 9999 -RA BKN045 10/05 Q1013 NOSIG
20:00
V
10 °C 10 km+ 4.800 ft 250° 250° 6 kt METAR LYBT 211800Z 25006KT 220V280 9999 BKN048 10/06 Q1013 NOSIG
19:30
V
10 °C 10 km+ 4.800 ft 230° 230° 6 kt METAR LYBT 211730Z 23006KT 9999 BKN048 10/06 Q1012 NOSIG
19:00
V
10 °C 10 km+ 4.500 ft 230° 230° 10 kt METAR LYBT 211700Z 23010KT 9999 -RA BKN045 10/06 Q1012 NOSIG
18:30
V
10 °C 10 km+ 4.500 ft 240° 240° 10 kt METAR LYBT 211630Z 24010KT 9999 -RA BKN045 10/06 Q1012 NOSIG
18:00
V
10 °C 10 km+ 4.500 ft 250° 250° 10 kt METAR LYBT 211600Z 25010KT 9999 -RA BKN045 10/06 Q1012 NOSIG
17:30
V
10 °C 10 km+ 4.500 ft 230° 230° 9 kt METAR LYBT 211530Z 23009KT 9999 -RA BKN045 10/05 Q1012 NOSIG
17:00
V
11 °C 10 km+ 4.500 ft 250° 250° 9 kt METAR LYBT 211500Z 25009KT 220V290 9999 -RA BKN045 11/04 Q1012 NOSIG
16:30
V
12 °C 10 km+ 4.500 ft 260° 260° 6 kt METAR LYBT 211430Z 26006KT 210V300 9999 BKN045 12/04 Q1012 NOSIG
16:00
V
12 °C 10 km+ 4.500 ft 240° 240° 8 kt METAR LYBT 211400Z 24008KT 200V270 9999 BKN045 12/05 Q1011 NOSIG
15:30
V
12 °C 10 km+ 4.000 ft 250° 250° 5 kt METAR LYBT 211330Z 25005KT 220V300 9999 BKN040 12/03 Q1011 NOSIG
15:00
V
13 °C 10 km+ 4.000 ft 270° 270° 6 kt METAR LYBT 211300Z 27006KT 240V340 9999 BKN040 13/04 Q1012 NOSIG
14:30
V
13 °C 10 km+ - 330° 330° 3 kt METAR LYBT 211230Z 33003KT 280V010 9999 SCT040 13/04 Q1012 NOSIG
14:00
V
12 °C 10 km+ - Var Var 3 kt METAR LYBT 211200Z VRB03KT 9999 SCT033 12/05 Q1012 NOSIG
13:30
V
12 °C 10 km+ 3.300 ft Var Var 3 kt METAR LYBT 211130Z VRB03KT 9999 BKN033 12/05 Q1012 NOSIG
13:00
V
12 °C 10 km+ 3.300 ft Var Var 2 kt METAR LYBT 211100Z VRB02KT 9999 BKN033 12/05 Q1012 NOSIG
12:30
M
11 °C 10 km+ 3.000 ft Var Var 2 kt METAR LYBT 211030Z VRB02KT 9999 BKN030 11/04 Q1012 NOSIG
12:00
M
11 °C 10 km+ 3.000 ft 280° 280° 5 kt METAR LYBT 211000Z 28005KT 200V320 9999 BKN030 11/05 Q1013 NOSIG
11:30
M
11 °C 10 km+ 2.800 ft 300° 300° 7 kt METAR LYBT 210930Z 30007KT 250V330 9999 BKN028 11/05 Q1013 NOSIG
11:00
M
11 °C 10 km+ 2.500 ft 310° 310° 6 kt METAR LYBT 210900Z 31006KT 260V010 9999 BKN025 11/05 Q1013 NOSIG
10:30
M
11 °C 10 km+ 2.300 ft 320° 320° 7 kt METAR LYBT 210830Z 32007KT 240V350 9999 BKN023 11/05 Q1013 NOSIG
10:00
V
10 °C 10 km+ - 320° 320° 8 kt METAR LYBT 210800Z 32008KT 280V350 9999 SCT020 10/05 Q1013 NOSIG
09:30
V
10 °C 10 km+ - 320° 320° 9 kt METAR LYBT 210730Z 32009KT 290V360 9999 SCT018 10/05 Q1013 NOSIG
09:00
M
9 °C 10 km+ 1.700 ft 330° 330° 10 kt METAR LYBT 210700Z 33010KT 290V010 9999 BKN017 09/05 Q1013 NOSIG
08:30
V
8 °C 10 km+ - 320° 320° 10 kt METAR LYBT 210630Z 32010KT 290V350 9999 SCT015 08/05 Q1013 NOSIG
08:00
V
8 °C 10 km+ - 320° 320° 10 kt METAR LYBT 210600Z 32010KT 290V350 9999 SCT015 08/05 Q1013 NOSIG
Cambiar esta información